| time (UTC) | temp C | wind direction | speed KPH | gust KPH | rain 1hr cm | rain 24hr cm | rain mn cm | humidity % | barometer mb |
| 20260502202007 | 18 | 91 | 6.4 | 11.3 | 0.00 | 0.00 | 0.00 | 81 | 1017.0 |
| 20260502200024 | 18 | 101 | 8.0 | 14.5 | 0.00 | 0.00 | 0.00 | 81 | 1017.2 |
| 20260502195007 | 18 | 100 | 8.0 | 12.9 | 0.00 | 0.00 | 0.00 | 81 | 1017.0 |
| 20260502193008 | 18 | 86 | 6.4 | 9.7 | 0.00 | 0.00 | 0.00 | 81 | 1017.1 |
| 20260502191009 | 18 | 104 | 9.7 | 14.5 | 0.00 | 0.00 | 0.00 | 81 | 1016.7 |
| 20260502190009 | 18 | 111 | 11.3 | 16.1 | 0.00 | 0.00 | 0.00 | 80 | 1016.7 |
| 20260502185008 | 18 | 87 | 11.3 | 17.7 | 0.00 | 0.00 | 0.00 | 80 | 1016.6 |
| 20260502184009 | 18 | 96 | 9.7 | 16.1 | 0.00 | 0.00 | 0.00 | 80 | 1016.7 |
| 20260502183011 | 18 | 107 | 11.3 | 17.7 | 0.00 | 0.00 | 0.00 | 79 | 1017.0 |
| 20260502182008 | 19 | 109 | 11.3 | 16.1 | 0.00 | 0.00 | 0.00 | 79 | 1017.1 |
| 20260502181029 | 19 | 107 | 9.7 | 16.1 | 0.00 | 0.00 | 0.00 | 78 | 1017.2 |
| 20260502164009 | 20 | 124 | 11.3 | 19.3 | 0.00 | 0.00 | 0.00 | 77 | 1017.5 |
| 20260502163011 | 20 | 109 | 12.9 | 19.3 | 0.00 | 0.00 | 0.00 | 76 | 1017.5 |
| 20260502162007 | 20 | 116 | 12.9 | 19.3 | 0.00 | 0.00 | 0.00 | 75 | 1017.5 |
| 20260502152007 | 21 | 111 | 11.3 | 17.7 | 0.00 | 0.00 | 0.00 | 70 | 1017.7 |
| 20260502151007 | 21 | 112 | 12.9 | 17.7 | 0.00 | 0.00 | 0.00 | 69 | 1017.9 |
| 20260502123012 | 20 | 108 | 16.1 | 25.7 | 0.00 | 0.00 | 0.00 | 75 | 1019.3 |
| 20260502122007 | 20 | 123 | 14.5 | 22.5 | 0.00 | 0.00 | 0.00 | 77 | 1019.6 |
| 20260502121007 | 20 | 123 | 12.9 | 19.3 | 0.00 | 0.00 | 0.00 | 77 | 1019.9 |
| 20260502115006 | 21 | 108 | 11.3 | 19.3 | 0.00 | 0.00 | 0.00 | 74 | 1019.7 |
| 20260502114009 | 21 | 101 | 12.9 | 19.3 | 0.00 | 0.00 | 0.00 | 73 | 1019.6 |
| 20260502113018 | 21 | 107 | 11.3 | 17.7 | 0.00 | 0.00 | 0.00 | 71 | 1019.8 |
| 20260502112007 | 21 | 97 | 11.3 | 17.7 | 0.00 | 0.00 | 0.00 | 70 | 1019.9 |
| 20260502111008 | 21 | 93 | 9.7 | 14.5 | 0.00 | 0.00 | 0.00 | 70 | 1019.9 |
| 20260502110012 | 21 | 97 | 11.3 | 17.7 | 0.00 | 0.00 | 0.00 | 70 | 1020.1 |
| 20260502105007 | 21 | 105 | 11.3 | 17.7 | 0.00 | 0.00 | 0.00 | 70 | 1020.2 |
| 20260502104009 | 21 | 103 | 11.3 | 17.7 | 0.00 | 0.00 | 0.00 | 70 | 1020.2 |
| 20260502103012 | 22 | 98 | 6.4 | 11.3 | 0.00 | 0.00 | 0.00 | 68 | 1020.3 |
| 20260502102008 | 22 | 73 | 6.4 | 11.3 | 0.00 | 0.00 | 0.00 | 65 | 1019.1 |
| 20260502101010 | 22 | 84 | 6.4 | 9.7 | 0.00 | 0.00 | 0.00 | 64 | 1019.1 |
| 20260502091011 | 21 | 60 | 8.0 | 14.5 | 0.00 | 0.00 | 0.00 | 69 | 1020.5 |
| 20260502071007 | 19 | 40 | 8.0 | 12.9 | 0.00 | 0.00 | 0.00 | 79 | 1020.6 |
| 20260502065007 | 18 | 47 | 9.7 | 14.5 | 0.00 | 0.00 | 0.00 | 80 | 1020.4 |
| 20260502064009 | 18 | 45 | 9.7 | 14.5 | 0.00 | 0.00 | 0.00 | 82 | 1020.5 |
| 20260502063016 | 18 | 42 | 8.0 | 11.3 | 0.00 | 0.00 | 0.00 | 82 | 1020.8 |
| 20260502062008 | 18 | 25 | 4.8 | 8.0 | 0.00 | 0.00 | 0.00 | 83 | 1020.8 |
| 20260502060019 | 18 | 31 | 6.4 | 11.3 | 0.00 | 0.00 | 0.00 | 85 | 1020.5 |
| 20260502055008 | 18 | 36 | 6.4 | 11.3 | 0.00 | 0.00 | 0.00 | 86 | 1020.4 |
| 20260502054009 | 18 | 17 | 6.4 | 11.3 | 0.00 | 0.00 | 0.00 | 86 | 1020.4 |
| 20260502053012 | 18 | 28 | 6.4 | 9.7 | 0.00 | 0.00 | 0.00 | 87 | 1020.3 |
| 20260502052008 | 18 | 47 | 6.4 | 9.7 | 0.00 | 0.00 | 0.00 | 87 | 1020.3 |
| 20260502045007 | 18 | 22 | 4.8 | 8.0 | 0.00 | 0.00 | 0.00 | 88 | 1020.2 |
| 20260502044010 | 18 | 11 | 3.2 | 6.4 | 0.00 | 0.00 | 0.00 | 88 | 1020.3 |
| 20260502043019 | 18 | 3 | 1.6 | 3.2 | 0.00 | 0.00 | 0.00 | 88 | 1020.3 |
| 20260502042012 | 18 | 32 | 3.2 | 6.4 | 0.00 | 0.00 | 0.00 | 89 | 1020.3 |
| 20260502041008 | 18 | 13 | 4.8 | 8.0 | 0.00 | 0.00 | 0.00 | 89 | 1020.4 |
| 20260502040027 | 18 | 353 | 4.8 | 8.0 | 0.00 | 0.00 | 0.00 | 88 | 1020.5 |
| 20260502035007 | 18 | 0 | 3.2 | 6.4 | 0.00 | 0.00 | 0.00 | 88 | 1020.6 |
| 20260502034008 | 18 | 28 | 4.8 | 8.0 | 0.00 | 0.00 | 0.00 | 88 | 1020.7 |
| 20260502032009 | 18 | 62 | 3.2 | 6.4 | 0.00 | 0.00 | 0.00 | 87 | 1020.8 |
| 20260502031008 | 18 | 75 | 6.4 | 9.7 | 0.00 | 0.00 | 0.00 | 87 | 1020.7 |
| 20260502030009 | 18 | 54 | 6.4 | 9.7 | 0.00 | 0.00 | 0.00 | 87 | 1020.7 |
| 20260502025008 | 18 | 56 | 6.4 | 9.7 | 0.00 | 0.00 | 0.00 | 87 | 1020.6 |
| 20260502024008 | 18 | 63 | 4.8 | 9.7 | 0.00 | 0.00 | 0.00 | 87 | 1020.6 |
| 20260502023011 | 18 | 62 | 6.4 | 9.7 | 0.00 | 0.00 | 0.00 | 87 | 1020.6 |
| 20260502022028 | 18 | 77 | 6.4 | 11.3 | 0.00 | 0.00 | 0.00 | 87 | 1020.7 |
| 20260502021008 | 18 | 63 | 6.4 | 9.7 | 0.00 | 0.00 | 0.00 | 87 | 1020.7 |
| 20260502020039 | 18 | 51 | 6.4 | 9.7 | 0.00 | 0.00 | 0.00 | 87 | 1020.8 |
| 20260502015007 | 18 | 56 | 6.4 | 9.7 | 0.00 | 0.00 | 0.00 | 87 | 1020.9 |
| 20260502014007 | 18 | 56 | 8.0 | 11.3 | 0.00 | 0.00 | 0.00 | 87 | 1020.9 |
| 20260502012007 | 18 | 55 | 3.2 | 4.8 | 0.00 | 0.00 | 0.00 | 86 | 1021.1 |
| 20260502011007 | 18 | 49 | 3.2 | 6.4 | 0.00 | 0.00 | 0.00 | 86 | 1021.2 |
| 20260502010009 | 18 | 47 | 6.4 | 8.0 | 0.00 | 0.00 | 0.00 | 85 | 1021.3 |
| 20260502005007 | 18 | 59 | 6.4 | 11.3 | 0.00 | 0.00 | 0.00 | 85 | 1021.4 |
| 20260502004010 | 18 | 56 | 6.4 | 12.9 | 0.00 | 0.00 | 0.00 | 85 | 1021.4 |
| 20260502003026 | 18 | 55 | 6.4 | 8.0 | 0.00 | 0.00 | 0.00 | 84 | 1021.4 |
| 20260502002007 | 18 | 62 | 6.4 | 11.3 | 0.00 | 0.00 | 0.00 | 84 | 1021.5 |
| 20260502001008 | 18 | 58 | 4.8 | 8.0 | 0.00 | 0.00 | 0.00 | 84 | 1021.8 |
| 20260502000026 | 18 | 61 | 4.8 | 9.7 | 0.00 | 0.00 | 0.00 | 84 | 1021.9 |
| 20260501235007 | 18 | 75 | 4.8 | 6.4 | 0.00 | 0.00 | 0.00 | 85 | 1022.0 |
| 20260501232007 | 18 | 59 | 6.4 | 9.7 | 0.00 | 0.00 | 0.00 | 85 | 1022.3 |
| 20260501231007 | 18 | 52 | 8.0 | 12.9 | 0.00 | 0.00 | 0.00 | 85 | 1022.2 |
| 20260501230022 | 18 | 53 | 8.0 | 12.9 | 0.00 | 0.00 | 0.00 | 85 | 1022.1 |
| 20260501225008 | 18 | 47 | 8.0 | 12.9 | 0.00 | 0.00 | 0.00 | 86 | 1022.1 |
| 20260501224008 | 18 | 37 | 6.4 | 11.3 | 0.00 | 0.00 | 0.00 | 86 | 1022.1 |
| 20260501223010 | 18 | 50 | 9.7 | 14.5 | 0.00 | 0.00 | 0.00 | 86 | 1022.1 |
| 20260501222007 | 18 | 50 | 8.0 | 12.9 | 0.00 | 0.00 | 0.00 | 86 | 1022.1 |
| 20260501221008 | 18 | 67 | 8.0 | 12.9 | 0.00 | 0.00 | 0.00 | 85 | 1022.2 |
| 20260501220010 | 18 | 48 | 9.7 | 16.1 | 0.00 | 0.00 | 0.33 | 84 | 1022.3 |
| 20260501214008 | 18 | 62 | 9.7 | 14.5 | 0.00 | 0.00 | 0.33 | 84 | 1022.4 |
| 20260501213010 | 18 | 73 | 9.7 | 16.1 | 0.00 | 0.00 | 0.33 | 84 | 1022.6 |
| 20260501212007 | 18 | 56 | 8.0 | 12.9 | 0.00 | 0.00 | 0.33 | 83 | 1022.4 |
| 20260501211008 | 18 | 51 | 11.3 | 17.7 | 0.00 | 0.00 | 0.33 | 84 | 1022.5 |
| 20260501210033 | 18 | 68 | 8.0 | 12.9 | 0.00 | 0.00 | 0.33 | 84 | 1022.6 |
| 20260501205022 | 18 | 72 | 6.4 | 9.7 | 0.00 | 0.00 | 0.33 | 84 | 1022.7 |
| 20260501204020 | 18 | 51 | 8.0 | 11.3 | 0.00 | 0.00 | 0.33 | 84 | 1022.7 |
| 20260501203024 | 18 | 60 | 9.7 | 17.7 | 0.00 | 0.00 | 0.33 | 84 | 1022.6 |